SZ-21 MODULE

Last updated on Mon Sep 21 2026 00:02:05 GMT+0000 (Coordinated Universal Time)

1 66515U 25246C 26262.79020193 .00068397 00000+0 26788-3 0 9997 2 66515 41.4702 74.2737 0011479 331.5770 28.4450 15.85904869 48719
UTC large
Height (km)
Speed (km/s)
/
Latitude / Longitude
Inclination (degrees)
Orbital Period (minutes)
Azimuth
Elevation
Range (km)
Doppler Factor

Next 0 passes for location: London (51.5072 / 0.1276)

No passes found over London.
SZ-21 MODULE